Airfield :
LOGIN :

Register | Disclaimer

   EN    FR    IT 

 










Legend :    VFR   Marginal VFR   IFR   Intensive IFR   Very Intensive IFR
Visi :
Ceiling :
>= 8 km
>= 3000ft
5 to 8 km
1000 to 3000 ft
1500m to 5 km
500 to 1000 ft
800 to 1500m
200 to 500 ft
< 800m
< 200 ft
Symbols :   Thunderstorms  Fog  Heavy snow  Heavy precipitations  Wind > 20 kt
SIGMETs :     Misc.  Thunderstorms  Icing  Turbulence  Mountain Waves  Volcanic Ashes






- Airport Elevation : 465 ft
- IATA code : LEJ


EDDP - Leipzig Halle

CURRENT METAR :
  • 280250Z AUTO 13008KT CAVOK 01/00 Q1016 NOSIG

EXPIRED METARs :
  • 280220Z AUTO 13007KT CAVOK 03/00 Q1017 NOSIG
  • 280150Z AUTO 13007KT CAVOK 03/00 Q1017
  • 272220Z AUTO 15007KT CAVOK 03/01 Q1019 NOSIG
  • 280120Z AUTO 12007KT CAVOK 02/00 Q1018 NOSIG
  • 280050Z AUTO 13007KT 050V160 CAVOK 02/00 Q1018

TAF TAF EDDP
Valid from the 28 at 00:00 until the 29 at 00:00 UTC


272300Z 2800/2824 15008KT CAVOK



MET'MAP, your aeronautical weather chart ! - Copyright ORBIFLY December 2007 - Disclaimer

ORBIFLY MET'MAP TEAM :

Programming & Development : Alexandra Zaïnal
Original concept : Baudouin d'Aumeries
Technical & hardware support : Manuel Goepfert
Assistance : Marc-Olivier Méhu




SOURCES & CREDITS :

   NOAA